Hourly Weather Observations

Printer Friendly

AL    FL    LA    MS

Data Buoys:

Western Gulf of Mexico
Eastern Gulf of Mexico

Alabama

 

Issued 2024-02-26 01:10:00

064-260200-

SOUTHWEST ALABAMA

  

CITY           SKY/WX    TMP DP  RH WIND       PRES   REMARKS

MOBILE         PTCLDY    59  40  49 S5        30.13S TC  15           

BROOKLEY FIELD CLEAR     60  52  74 S6        30.14S TC  16           

EVERGREEN      CLEAR     62  37  39 SW7       30.12R TC  17           


Mississippi

Issued 2024-02-26 01:10:00

082-260200-

COASTAL MISSISSIPPI

  

CITY           SKY/WX    TMP DP  RH WIND       PRES   REMARKS

BAY ST LOUIS   CLEAR     57  52  82 S5        30.11R                  

BILOXI         CLEAR     63  53  72 SE6       30.09S                  

GULFPORT       CLEAR     60  55  83 CALM      30.12R                  

PASCAGOULA     CLEAR     53  47  79 CALM      30.13R                  


Florida

Issued 2024-02-26 01:10:00

010-012>015-112-114-115-260200-

PANHANDLE FLORIDA

  

CITY           SKY/WX    TMP DP  RH WIND       PRES   REMARKS

PENSACOLA      CLEAR     57  44  62 SW3       30.14S                  

PENSACOLA NAS  CLEAR     54  49  83 CALM      30.14S                  

MILTON NAS     CLEAR     53  43  68 SW6       30.14R                  

CRESTVIEW      CLEAR     54  38  54 CALM      30.15S                  

DUKE FIELD     CLEAR     52  38  60 S3        30.14R                  

VALPARAISO     CLEAR     59  43  55 CALM      30.14R                  

MARY ESTHER    CLEAR     60  48  63 S3        30.13S                  

PANAMA CITY    CLEAR     52  43  71 CALM      30.14R                  

TYNDALL AFB    CLEAR     56  45  67 S3        30.11R                  

APALACHICOLA   CLEAR     53  47  79 CALM      30.16R                  



STATION/POSITION SKY/WX   TEMP    WIND        PRES    WAVE   SWELL

                          AIR SEA DIR/SP/G            HT/PER HT/PER

                          (F)     (DEG/KT/KT) (MB)    (FT/S) (FT/S)

30.1N   87.6W              62 62  170/  2/  4 1020.9S   1/ 6

29.2N   88.2W              70 67  200/  8/ 10 1020.7F   1/ 4

PANAMA CITY BEAC           61 63  280/  5/  6 1020.3

TOWER C                    61                 1021.6R

28.5N   84.5W              66     200/  4/  4 1021.7R   2/ 6   2/ 6



 


Louisiana

Issued 2024-02-26 01:11:00

260111

RWRLA 

LOUISIANA WEATHER ROUNDUP

NATIONAL WEATHER SERVICE NEW ORLEANS LA

700 PM CST SUN FEB 25 2024



NOTE: "FAIR" INDICATES FEW OR NO CLOUDS BELOW 12,000 FEET WITH NO

      SIGNIFICANT WEATHER AND/OR OBSTRUCTIONS TO VISIBILITY.

      SKY/WX - SKY CONDITION AND SIGNIFICANT WEATHER.

      TMP - AIR TEMPERATURE.    DP   - DEWPOINT TEMPERATURE.

      RH  - RELATIVE HUMIDITY.  PRES - PRESSURE.

      HX  - HEAT INDEX.         WCI  - WIND CHILL INDEX.



*  THESE STATIONS ARE NOT NWS OR FAA STATIONS AND ARE NOT UNDER

   NWS QUALITY CONTROL.



LAZ048-061-063-065-066-069-076-077-260200-

SOUTHEAST LOUISIANA

  

CITY           SKY/WX    TMP DP  RH WIND       PRES   REMARKS

N.O. INTL ARPT CLEAR     65  46  50 S7        30.11R                  

N.O. LAKEFRONT CLEAR     65  46  50 S9        30.11R                  

RESERVE*       CLEAR     64  41  42 S9        30.11R                  

SLIDELL        CLEAR     64  48  56 S8        30.10R                  

BATON ROUGE    CLEAR     68  40  35 SW13      30.08R                  

BELLE CHASSE*  CLEAR     59  49  69 SW7       30.11S                  

GALLIANO*      CLEAR     59  50  71 S5        30.12S                  

NEW ROADS*     CLEAR     65  45  48 SE7       30.09R                  

GONZALES*      CLEAR     67  43  42 SW6       30.10R                  

HAMMOND*       CLEAR     61  46  58 S3        30.09R HAZE             

HOUMA*         CLEAR     63  48  59 S5        30.12R